[Iaude] MPEC J51: 2024 JW [a=9.84,e=0.86,i=8.2,H=22.1]

mpec at cfa.harvard.edu mpec at cfa.harvard.edu
Fri May 3 13:52:08 EDT 2024


M.P.E.C. 2024-J51                                   Issued 2024 May 3, 17:50 UT

     The Minor Planet Electronic Circulars contain information on unusual
         minor planets, routine data on comets and natural satellites,
         and occasional editorial announcements.  They are published
    on behalf of Division F of the International Astronomical Union by the
          Minor Planet Center, Smithsonian Astrophysical Observatory,
                          Cambridge, MA 02138, U.S.A.
			  
             Prepared using the Tamkin Foundation Computer Network

                              MPC at CFA.HARVARD.EDU
            URL https://www.minorplanetcenter.net/    ISSN 1523-6714

                                    2024 JW                                     


Observations:
     K24J00W 1C2024 04 04.24858 12 29 38.73 -09 25 48.0          21.2 GVEJ051G96
     K24J00W 1C2024 04 04.25969 12 29 38.64 -09 26 04.3          21.2 GVEJ051G96
     K24J00W 1C2024 04 04.26524 12 29 38.63 -09 26 11.8          20.5 GVEJ051G96
     K24J00W* C2024 05 01.31816812 38 12.075-21 31 50.10         21.63wXEJ051F51
     K24J00W  C2024 05 01.32940512 38 12.591-21 32 09.16         21.75wXEJ051F51
     K24J00W  C2024 05 01.34100312 38 13.121-21 32 28.94         22.13wXEJ051F51
     K24J00W  C2024 05 01.35226012 38 13.631-21 32 48.13         21.85wXEJ051F51
     K24J00W  C2024 05 01.42035012 38 16.759-21 34 42.68         21.58GVEJ051F51
     K24J00W  C2024 05 01.42099812 38 16.780-21 34 43.65         21.41GVEJ051F51
     K24J00W KC2024 05 02.23083 12 39 03.03 -21 57 35.0                VEJ051291
     K24J00W KC2024 05 02.23806 12 39 03.43 -21 57 47.7          22.3 RVEJ051291
     K24J00W KC2024 05 02.24528 12 39 03.75 -21 57 59.6          22.2 RVEJ051291
     K24J00W KC2024 05 03.25809 12 40 04.00 -22 26 24.2          21.5 RVEJ051291
     K24J00W KC2024 05 03.26633 12 40 04.44 -22 26 37.5          21.3 RVEJ051291
     K24J00W KC2024 05 03.27458 12 40 04.88 -22 26 51.7          21.5 RVEJ051291

Observer details:
291 LPL/Spacewatch II.  Observer T. H. Bressi.  1.8-m f/2.7 reflector + CCD.
F51 Pan-STARRS 1, Haleakala.  Observers J. Herman, T. Lowe, P. Minguez, A.
    Schultz, I. Smith.  Measurers K. Chambers, T. de Boer, J. Fairlamb, H.
    Gao, M. Huber, C.-C. Lin, E. Magnier, Y. Ramanjooloo, R. Wainscoat, R.
    Weryk.  1.8-m Ritchey-Chretien + CCD.
G96 Mt. Lemmon Survey.  Observer G. J. Leonard.  Measurers B. Gray, D. Rankin,
    F. C. Shelly.  1.5-m reflector + 10K CCD.

Orbital elements:
2024 JW                                                  Earth MOID = 0.3733 AU
Epoch 2024 Mar. 31.0 TT = JDT 2460400.5                 Bell                    
M 358.63525              (2000.0)            P               Q                  
n   0.03192042     Peri.  223.82934     -0.71338284     +0.70077256             
a   9.8421585      Node     0.66656     -0.59727199     -0.60677869             
e   0.8614190      Incl.    8.19497     -0.36653936     -0.37514989             
P  30.9            H   22.13          G   0.15           U   7                  
Residuals in seconds of arc
240404 G96  0.4-  0.4+    240501 F51  0.0   0.0     240502 291  0.6+  0.3-
240404 G96  0.1-  0.3-    240501 F51  0.0   0.1-    240502 291  0.1+  0.0
240404 G96  0.6+  0.0     240501 F51  0.0   0.1-    240503 291  0.1-  0.2-
240501 F51  0.1-  0.1+    240501 F51  0.1-  0.0     240503 291  0.1-  0.3+
240501 F51  0.1-  0.1+    240502 291  0.0   0.3+    240503 291  0.1-  0.1-

Ephemeris:
2024 JW                  a,e,i = 9.84, 0.86, 8                   q = 1.3639
Date    TT    R. A. (2000) Decl.     Delta      r    Elong.  Phase     V
2024 04 03    12 29 43.0 -08 56 44   0.4687  1.4668   173.9     4.1    21.7
...
2024 04 18    12 30 38.3 -15 16 56   0.4163  1.4051   161.5    13.1    21.7
...
2024 04 26    12 34 08.0 -19 00 52   0.4033  1.3830   155.3    17.7    21.8
...
2024 05 02    12 38 49.8 -21 50 47   0.3998  1.3718   151.3    20.7    21.8
2024 05 03    12 39 48.5 -22 18 51   0.3997  1.3704   150.6    21.2    21.9
2024 05 04    12 40 50.8 -22 46 48   0.3997  1.3692   150.0    21.6    21.9
...
2024 05 10    12 48 22.0 -25 30 39   0.4030  1.3645   146.6    24.0    22.0
...
2024 05 18    13 01 57.1 -28 53 22   0.4148  1.3658   143.0    26.5    22.1
...
2024 06 02    13 37 24.3 -33 56 46   0.4598  1.3916   138.3    29.0    22.4

M. P. C. Staff               (C) Copyright 2024 MPC           M.P.E.C. 2024-J51





More information about the Iaude mailing list